EW4792 Weather Reports


Display with metric or nautical units.
time (UTC)temp
F
wind
direction
speed
MPH
gust
MPH
rain 1hr
in
rain 24hr
in
rain mn
in
humidity
%
barometer
mb
20260509132144 73 153 1.0 2.0 0.00 0.00 0.00 92 1012.6
20260509131207 73 153 0.0 2.0 0.00 0.00 0.00 92 1012.8
20260509130703 73 153 0.0 2.0 0.00 0.00 0.00 92 1012.7
20260509130138 73 153 1.0 4.0 0.00 0.00 0.00 92 1012.5
20260509125613 73 153 2.0 5.0 0.00 0.00 0.00 92 1012.3
20260509125156 73 153 3.0 7.0 0.00 0.00 0.00 92 1012.1
20260509124657 73 150 6.0 7.0 0.00 0.00 0.00 92 1012.1
20260509123620 73 139 4.0 6.0 0.00 0.00 0.00 92 1012.0
20260509123145 73 95 0.0 0.0 0.00 0.00 0.00 92 1012.3
20260509122629 73 95 0.0 0.0 0.00 0.00 0.00 92 1012.2
20260509122210 73 95 0.0 0.0 0.00 0.00 0.00 92 1012.3
20260509121705 73 95 0.0 2.0 0.00 0.00 0.00 92 1012.5
20260509121142 73 95 1.0 5.0 0.00 0.00 0.00 92 1012.8
20260509120207 73 95 2.0 4.0 0.00 0.00 0.00 92 1012.7
20260509115700 73 93 1.0 4.0 0.00 0.00 0.00 92 1012.6
20260509114709 73 41 0.0 6.0 0.00 0.00 0.00 92 1012.4
20260509114203 73 39 3.0 6.0 0.00 0.00 0.00 92 1012.4
20260509113149 73 10 3.0 9.0 0.00 0.00 0.00 92 1012.4
20260509112632 73 15 5.0 11.0 0.00 0.00 0.00 92 1012.4
20260509112116 73 3 6.0 11.0 0.00 0.00 0.00 92 1012.4
20260509111629 73 10 4.0 10.0 0.00 0.00 0.00 92 1012.5
20260509111121 73 350 4.0 8.0 0.00 0.00 0.00 92 1012.5
20260509110616 73 357 4.0 8.0 0.00 0.00 0.00 92 1012.4
20260509110117 73 4 4.0 6.0 0.00 0.00 0.00 92 1012.3
20260509105717 73 3 1.0 3.0 0.00 0.00 0.00 92 1012.0
20260509105150 73 93 1.0 4.0 0.00 0.00 0.00 91 1012.0
20260509104213 73 93 0.0 2.0 0.00 0.00 0.00 92 1012.1
20260509103711 73 93 0.0 2.0 0.00 0.00 0.00 91 1012.2
20260509103145 73 93 1.0 2.0 0.00 0.00 0.00 91 1012.4
20260509102204 73 93 0.0 4.0 0.00 0.00 0.00 91 1012.3
20260509101658 73 93 1.0 6.0 0.00 0.00 0.00 91 1012.3
20260509101146 73 93 3.0 6.0 0.00 0.00 0.00 91 1012.2
20260509100207 73 84 2.0 4.0 0.00 0.00 0.00 91 1012.0
20260509095700 73 84 0.0 4.0 0.00 0.00 0.00 91 1012.0
20260509095200 73 84 2.0 4.0 0.00 0.00 0.00 91 1011.9
20260509094650 73 84 1.0 4.0 0.00 0.00 0.00 91 1011.9
20260509094201 73 84 1.0 5.0 0.00 0.00 0.00 91 1011.8
20260509093658 73 75 2.0 5.0 0.00 0.00 0.00 91 1011.8
20260509093152 73 65 2.0 4.0 0.00 0.00 0.00 91 1011.8
20260509092646 73 118 1.0 3.0 0.00 0.00 0.00 91 1011.9
20260509092142 73 142 1.0 2.0 0.00 0.00 0.00 91 1011.8
20260509091703 73 149 0.0 0.0 0.00 0.00 0.00 91 1011.9
20260509091158 73 149 0.0 0.0 0.00 0.00 0.00 91 1011.7
20260509090710 73 149 0.0 0.0 0.00 0.00 0.00 91 1011.6
20260509090120 73 149 0.0 0.0 0.00 0.00 0.00 91 1011.4
20260509085700 73 149 0.0 0.0 0.00 0.00 0.00 91 1011.2
20260509085210 73 149 0.0 1.0 0.00 0.00 0.00 91 1011.2
20260509084648 73 149 0.0 2.0 0.00 0.00 0.00 91 1011.5
20260509083626 73 149 0.0 1.0 0.00 0.00 0.00 91 1011.3
20260509083125 73 149 0.0 2.0 0.00 0.00 0.00 91 1011.5
20260509082638 73 149 1.0 6.0 0.00 0.00 0.00 91 1011.6
20260509082156 73 149 1.0 6.0 0.00 0.00 0.00 91 1011.8
20260509081635 73 148 4.0 6.0 0.00 0.00 0.00 91 1011.7
20260509081126 73 146 5.0 6.0 0.00 0.00 0.00 91 1011.7
20260509080623 73 142 3.0 6.0 0.00 0.00 0.00 91 1011.6
20260509080121 73 141 4.0 6.0 0.00 0.00 0.00 91 1011.3
20260509075725 73 144 5.0 6.0 0.00 0.00 0.00 91 1011.4
20260509075158 73 147 5.0 5.0 0.00 0.00 0.00 91 1011.3
20260509074652 73 151 3.0 5.0 0.00 0.00 0.00 91 1011.6
20260509074146 73 150 3.0 6.0 0.00 0.00 0.00 91 1011.6
20260509073210 73 142 5.0 6.0 0.00 0.00 0.00 91 1011.4
20260509072707 73 141 5.0 7.0 0.00 0.00 0.00 91 1011.3
20260509072205 73 154 6.0 10.0 0.00 0.00 0.00 91 1011.5
20260509071704 73 165 8.0 10.0 0.00 0.00 0.00 91 1011.4
20260509071201 73 161 6.0 9.0 0.00 0.00 0.00 91 1011.4
20260509070651 73 159 8.0 10.0 0.00 0.00 0.00 91 1011.7
20260509070127 74 142 8.0 10.0 0.00 0.00 0.00 91 1011.8
20260509065621 74 163 7.0 11.0 0.00 0.00 0.00 91 1011.5
20260509065154 74 167 9.0 11.0 0.00 0.00 0.00 91 1011.6
20260509064625 74 158 8.0 11.0 0.00 0.00 0.00 91 1011.6
20260509064139 74 170 6.0 11.0 0.00 0.00 0.00 90 1011.6
20260509063631 74 178 8.0 11.0 0.00 0.00 0.00 90 1011.7
20260509063126 74 189 8.0 9.0 0.00 0.00 0.00 90 1011.6
20260509062619 74 177 6.0 9.0 0.00 0.00 0.00 90 1011.6
20260509062133 74 184 5.0 10.0 0.00 0.00 0.00 90 1011.6
20260509061626 74 168 7.0 10.0 0.00 0.00 0.00 90 1011.6
20260509061120 74 166 7.0 11.0 0.00 0.00 0.00 90 1011.6
20260509060633 74 170 9.0 11.0 0.00 0.00 0.00 90 1011.6
20260509060125 74 168 8.0 11.0 0.00 0.00 0.00 90 1011.6
20260509055619 74 155 9.0 11.0 0.00 0.00 0.00 90 1011.8
20260509055132 74 170 9.0 11.0 0.00 0.00 0.00 90 1011.7
20260509054624 74 172 8.0 12.0 0.00 0.00 0.00 90 1011.8
20260509054118 74 182 9.0 14.0 0.00 0.00 0.00 90 1012.1
20260509053631 74 182 10.0 12.0 0.00 0.00 0.00 90 1012.2
20260509053124 74 172 9.0 11.0 0.00 0.00 0.00 90 1012.3
20260509052618 74 163 7.0 12.0 0.00 0.00 0.00 90 1012.2
20260509052116 74 161 9.0 12.0 0.00 0.00 0.00 90 1012.0
20260509051646 74 159 8.0 11.0 0.00 0.00 0.00 90 1012.0
20260509051121 74 155 9.0 11.0 0.00 0.00 0.00 90 1012.0
20260509050614 74 155 9.0 11.0 0.00 0.00 0.00 90 1012.2
20260509050148 74 155 10.0 11.0 0.00 0.00 0.00 90 1012.2
20260509045643 73 138 8.0 10.0 0.00 0.00 0.00 90 1012.2
20260509045153 73 128 7.0 9.0 0.00 0.00 0.00 89 1012.0
20260509044648 73 112 5.0 7.0 0.00 0.00 0.00 89 1011.9
20260509044157 73 94 5.0 7.0 0.00 0.00 0.00 89 1011.7
20260509043657 73 104 5.0 7.0 0.00 0.00 0.00 89 1011.7
20260509043153 74 111 5.0 9.0 0.00 0.00 0.00 89 1011.8
20260509042701 74 129 8.0 10.0 0.00 0.00 0.00 89 1011.7
20260509042154 74 142 8.0 10.0 0.00 0.00 0.00 89 1011.8
20260509041651 74 128 4.0 6.0 0.00 0.00 0.00 89 1011.6
20260509041146 74 123 4.0 6.0 0.00 0.00 0.00 89 1011.5
20260509040126 74 113 5.0 7.0 0.00 0.00 0.00 88 1011.5
20260509035643 74 116 5.0 7.0 0.00 0.00 0.00 88 1011.8
20260509035153 74 113 5.0 7.0 0.00 0.00 0.00 88 1011.7
20260509034652 74 113 5.0 7.0 0.00 0.00 0.00 88 1011.7
20260509034147 75 103 6.0 7.0 0.00 0.00 0.00 88 1011.7
20260509033207 75 112 4.0 7.0 0.00 0.00 0.00 88 1011.8
20260509032703 75 99 5.0 8.0 0.00 0.00 0.00 88 1011.8
20260509032226 75 107 4.0 8.0 0.00 0.00 0.00 88 1011.6
20260509031647 75 139 5.0 8.0 0.00 0.00 0.00 88 1011.6
20260509031124 75 155 6.0 8.0 0.00 0.00 0.00 88 1011.6
20260509030625 75 138 6.0 8.0 0.00 0.00 0.00 88 1011.5
20260509030122 75 130 6.0 8.0 0.00 0.00 0.00 88 1011.5
20260509025614 75 132 5.0 7.0 0.00 0.00 0.00 88 1011.5
20260509025126 75 132 4.0 5.0 0.00 0.00 0.00 88 1011.6
20260509024620 75 132 3.0 5.0 0.00 0.00 0.00 87 1011.5
20260509024133 75 132 1.0 4.0 0.00 0.00 0.00 87 1011.6
20260509023733 75 132 1.0 4.0 0.00 0.00 0.00 87 1011.4
20260509023206 75 132 2.0 6.0 0.00 0.00 0.00 87 1011.2
20260509022657 75 132 5.0 6.0 0.00 0.00 0.00 87 1011.1
20260509022147 75 134 5.0 7.0 0.00 0.00 0.00 87 1011.1
20260509021631 75 124 6.0 7.0 0.00 0.00 0.00 87 1010.9
20260509021126 75 139 5.0 7.0 0.00 0.00 0.00 87 1010.6
20260509020631 75 131 5.0 7.0 0.00 0.00 0.00 87 1010.7
20260509020134 75 128 6.0 8.0 0.00 0.00 0.00 87 1010.5
20260509015629 75 145 7.0 8.0 0.00 0.00 0.00 87 1010.6
20260509015205 75 145 7.0 9.0 0.00 0.00 0.00 87 1010.5
20260509014647 75 153 6.0 9.0 0.00 0.00 0.00 87 1010.4
20260509014148 75 132 5.0 7.0 0.00 0.00 0.00 87 1010.3
20260509013642 75 116 5.0 8.0 0.00 0.00 0.00 86 1010.2
20260509013139 75 132 6.0 8.0 0.00 0.00 0.00 86 1010.2
20260509012713 75 135 6.0 7.0 0.00 0.00 0.00 86 1010.4
20260509012114 75 128 6.0 8.0 0.00 0.00 0.00 86 1010.3
20260509011617 76 130 5.0 7.0 0.00 0.00 0.00 86 1010.3
20260509011129 76 124 5.0 7.0 0.00 0.00 0.00 86 1010.4
20260509010651 76 121 6.0 7.0 0.00 0.00 0.00 86 1010.3
20260509010200 76 124 5.0 7.0 0.00 0.00 0.00 86 1010.3
20260509005649 76 122 5.0 7.0 0.00 0.00 0.00 86 1010.2
20260509005146 76 136 5.0 6.0 0.00 0.00 0.00 86 1010.2
20260509004643 76 137 4.0 6.0 0.00 0.00 0.00 86 1010.3
20260509003625 76 149 3.0 5.0 0.00 0.00 0.00 86 1010.3
20260509003230 76 149 4.0 5.0 0.00 0.00 0.00 86 1010.2
20260509002642 76 151 4.0 5.0 0.00 0.00 0.00 86 1010.2
20260509002119 76 151 3.0 6.0 0.00 0.00 0.00 85 1010.2
20260509001705 76 147 4.0 6.0 0.00 0.00 0.00 85 1010.2
20260509001201 76 150 4.0 6.0 0.00 0.00 0.00 85 1010.2
20260509000658 76 132 4.0 6.0 0.00 0.00 0.00 85 1010.2
20260509000152 76 133 5.0 7.0 0.00 0.00 0.00 85 1010.2
20260508235646 76 128 5.0 8.0 0.00 0.00 0.00 85 1010.2
20260508235158 76 125 6.0 8.0 0.00 0.00 0.00 85 1010.2
20260508234657 76 126 4.0 7.0 0.00 0.00 0.00 85 1010.2
20260508234139 76 130 5.0 7.0 0.00 0.00 0.00 85 1010.2
20260508233616 76 132 5.0 8.0 0.00 0.00 0.00 85 1010.2
20260508233114 76 151 6.0 8.0 0.00 0.00 0.00 85 1010.2
20260508232612 75 152 7.0 8.0 0.00 0.00 0.00 85 1010.2
20260508232206 75 148 7.0 8.0 0.00 0.00 0.00 85 1010.0
20260508231701 75 143 7.0 9.0 0.00 0.00 0.00 85 1010.1
20260508231157 75 149 6.0 9.0 0.00 0.00 0.00 85 1010.1
20260508230651 75 155 8.0 9.0 0.00 0.00 0.00 85 1010.2
20260508230147 75 147 8.0 9.0 0.00 0.00 0.00 85 1010.2
20260508225642 75 157 7.0 9.0 0.00 0.00 0.00 85 1010.3
20260508225212 75 174 7.0 9.0 0.00 0.00 0.00 85 1010.3
20260508224711 75 164 7.0 9.0 0.00 0.00 0.00 85 1010.3
20260508224208 75 163 7.0 9.0 0.00 0.00 0.00 85 1010.4
20260508223703 75 155 8.0 9.0 0.00 0.00 0.00 85 1010.3
20260508223157 75 157 7.0 9.0 0.00 0.00 0.00 85 1010.3
20260508222719 75 149 6.0 9.0 0.00 0.00 0.00 85 1010.4
20260508222152 75 148 6.0 7.0 0.00 0.00 0.00 85 1010.4
20260508221708 75 165 4.0 6.0 0.00 0.00 0.00 86 1010.4
20260508221204 75 167 5.0 7.0 0.00 0.00 0.00 86 1010.4
20260508220206 75 160 5.0 9.0 0.00 0.00 0.00 85 1010.6
20260508215659 75 159 6.0 9.0 0.00 0.00 0.00 85 1010.5
20260508215149 75 153 7.0 9.0 0.00 0.00 0.00 85 1010.6
20260508214208 75 166 8.0 9.0 0.00 0.00 0.00 86 1010.7
20260508213704 75 171 8.0 9.0 0.00 0.00 0.00 86 1010.7
20260508213154 75 170 6.0 10.0 0.00 0.00 0.00 86 1010.9
20260508212628 75 159 7.0 8.0 0.00 0.00 0.00 86 1010.8
20260508212126 75 177 6.0 9.0 0.00 0.00 0.00 86 1011.0
20260508211708 75 165 7.0 9.0 0.00 0.00 0.00 86 1011.0
20260508211146 75 162 8.0 8.0 0.00 0.00 0.00 86 1011.2
20260508210151 75 157 6.0 7.0 0.00 0.00 0.00 86 1011.2
20260508205702 75 166 6.0 8.0 0.00 0.00 0.00 86 1011.2
20260508205156 75 180 6.0 8.0 0.00 0.00 0.00 86 1011.3
20260508204653 75 181 6.0 8.0 0.00 0.00 0.00 86 1011.3
20260508204153 75 182 7.0 8.0 0.00 0.00 0.00 86 1011.2
20260508203648 75 172 6.0 8.0 0.00 0.00 0.00 86 1011.2
20260508203142 75 170 6.0 8.0 0.00 0.00 0.00 86 1011.3
20260508202207 74 159 6.0 8.0 0.00 0.00 0.00 86 1011.2
20260508201205 74 172 6.0 8.0 0.00 0.00 0.00 86 1011.5
20260508200613 74 147 6.0 9.0 0.00 0.00 0.00 86 1011.5
20260508200228 74 168 6.0 9.0 0.00 0.00 0.00 86 1011.6
20260508195705 73 165 6.0 9.0 0.00 0.00 0.00 86 1011.7
20260508195201 73 155 6.0 9.0 0.00 0.00 0.00 86 1011.7
20260508194718 73 163 7.0 9.0 0.00 0.00 0.00 86 1011.7
20260508194158 73 186 6.0 8.0 0.00 0.00 0.00 86 1011.6
20260508193649 72 164 6.0 9.0 0.00 0.00 0.00 86 1011.7
20260508193142 72 174 6.0 9.0 0.00 0.00 0.00 86 1011.8
20260508192126 72 159 7.0 11.0 0.00 0.00 0.00 86 1011.9
20260508191621 72 165 9.0 11.0 0.00 0.00 0.00 86 1011.9
20260508191123 72 145 7.0 10.0 0.00 0.00 0.00 86 1012.0
20260508190646 72 138 8.0 10.0 0.00 0.00 0.00 86 1011.9
20260508190143 72 147 7.0 9.0 0.00 0.00 0.00 86 1012.1
20260508185624 72 155 7.0 8.0 0.00 0.00 0.00 86 1012.3
20260508185122 72 169 7.0 8.0 0.00 0.00 0.00 86 1012.3
20260508184616 72 157 6.0 8.0 0.00 0.00 0.00 87 1012.3
20260508184116 71 163 4.0 6.0 0.00 0.00 0.00 87 1012.3
20260508183627 71 208 0.0 1.0 0.00 0.00 0.00 87 1012.4
20260508183139 70 208 0.0 2.0 0.00 0.00 0.00 87 1012.4
20260508182207 70 208 0.0 5.0 0.00 0.00 0.00 87 1012.6
20260508181637 70 208 3.0 5.0 0.00 0.00 0.00 87 1012.8
20260508181118 70 203 2.0 6.0 0.00 0.00 0.00 87 1012.9
20260508180700 70 203 4.0 6.0 0.00 0.00 0.00 87 1012.9
20260508175620 69 195 4.0 7.0 0.00 0.00 0.00 87 1013.1
20260508175124 69 186 2.0 8.0 0.00 0.00 0.00 87 1013.3
20260508174705 69 132 6.0 8.0 0.00 0.00 0.00 88 1013.3
20260508174148 69 174 3.0 8.0 0.00 0.00 0.00 88 1013.2
20260508173642 68 153 4.0 6.0 0.00 0.00 0.00 88 1013.3
20260508173138 68 180 1.0 4.0 0.00 0.00 0.00 88 1013.4
20260508172634 67 180 0.0 5.0 0.00 0.00 0.00 88 1013.3
20260508172134 67 180 3.0 5.0 0.00 0.00 0.00 88 1013.3
20260508171630 67 180 2.0 5.0 0.00 0.00 0.00 88 1013.4
20260508171126 67 180 3.0 6.0 0.00 0.00 0.00 88 1013.3
20260508170731 66 180 4.0 6.0 0.00 0.00 0.00 88 1013.4
20260508170203 66 195 4.0 5.0 0.00 0.00 0.00 88 1013.4
20260508165213 67 247 4.0 5.0 0.00 0.00 0.00 88 1013.4
20260508164707 66 255 2.0 4.0 0.00 0.00 0.00 88 1013.5
20260508164204 66 257 2.0 4.0 0.00 0.00 0.00 88 1013.5
20260508163613 66 257 2.0 6.0 0.00 0.00 0.00 88 1013.7
20260508163205 66 257 4.0 6.0 0.00 0.00 0.00 88 1013.8
20260508162702 66 261 5.0 6.0 0.00 0.00 0.00 88 1013.8
20260508162152 66 282 2.0 7.0 0.00 0.00 0.00 88 1013.9
20260508161648 66 340 2.0 7.0 0.00 0.00 0.00 88 1013.8
20260508161141 66 300 2.0 4.0 0.00 0.00 0.00 88 1013.9
20260508160209 65 341 4.0 7.0 0.00 0.00 0.00 89 1014.1
20260508155702 65 341 4.0 6.0 0.00 0.00 0.00 88 1014.2
20260508154710 64 333 0.0 5.0 0.00 0.00 0.00 88 1014.5
20260508154205 64 332 2.0 5.0 0.00 0.00 0.00 88 1014.7
20260508153657 64 315 2.0 5.0 0.00 0.00 0.00 89 1014.8
20260508153155 64 51 0.0 5.0 0.00 0.00 0.00 88 1014.8
20260508152655 63 51 1.0 5.0 0.00 0.00 0.00 88 1014.7
20260508152149 63 354 2.0 5.0 0.00 0.00 0.00 88 1014.7
20260508151649 63 351 2.0 6.0 0.00 0.00 0.00 88 1014.9
20260508151130 63 359 2.0 6.0 0.00 0.00 0.00 88 1014.8
20260508150631 63 326 2.0 4.0 0.00 0.00 0.00 88 1014.9
20260508150127 63 323 2.0 4.0 0.00 0.00 0.00 88 1014.9
20260508145629 63 330 1.0 5.0 0.00 0.00 0.00 88 1014.9
20260508145144 63 342 2.0 5.0 0.00 0.00 0.00 88 1015.0
20260508144626 62 340 1.0 4.0 0.00 0.00 0.00 87 1014.9
20260508144134 62 330 1.0 4.0 0.00 0.00 0.00 87 1014.9
20260508143628 62 327 1.0 2.0 0.00 0.00 0.00 87 1015.2
20260508143125 62 327 0.0 1.0 0.00 0.00 0.00 87 1015.0
20260508142643 62 327 0.0 0.0 0.00 0.00 0.00 87 1015.1
20260508142126 62 327 0.0 1.0 0.00 0.00 0.00 87 1015.2
20260508141622 62 327 0.0 1.0 0.00 0.00 0.00 87 1015.0
20260508141118 62 73 0.0 1.0 0.00 0.00 0.00 87 1014.9
20260508140627 62 73 0.0 2.0 0.00 0.00 0.00 87 1014.9
20260508140141 62 73 0.0 2.0 0.00 0.00 0.00 87 1014.9
20260508135654 62 73 0.0 1.0 0.00 0.00 0.00 87 1015.0
20260508135208 62 73 0.0 2.0 0.00 0.00 0.00 86 1014.8
20260508134702 62 73 0.0 2.0 0.00 0.00 0.00 86 1014.9
20260508134158 62 73 0.0 4.0 0.00 0.00 0.00 86 1014.7
20260508133616 62 73 1.0 4.0 0.00 0.00 0.00 86 1014.7
20260508133134 62 51 0.0 2.0 0.00 0.00 0.00 86 1014.7
20260508132717 62 49 0.0 2.0 0.00 0.00 0.00 86 1014.8